Date String (YYYY-MM-DD hh:mm:ss) UTC,Instrument flags,Ambient pressure (hPa),Sample flow (lpm),Bypass flow (lpm),Sample temperature (°C),Ambient temperature (°C),ASC tube jacket temperature (°C),LED temperature (°C),Box temperature (°C),Sample RH (%),Span deviation,Mass concentration (μg/m³),Mass concentration (μg/m³),Mass concentration (μg/m³)
DateTimeUTC,F1_M11,P_M11,Q1_M11,Q2_M11,T1_M11,T2_M11,T3_M11,T4_M11,T5_M11,U1_M11,ZSPAN_M11,X2_M11,X0_M11,X1_M11
2021-11-08 07:00:00,,0826.0,5.00,0.00,29.3,28.4,00.0,38.3,31.0,08.5,0000.0,0002.22,0009.53,0001.21
2021-11-08 07:01:00,,0826.0,5.00,0.00,29.3,28.4,00.0,38.3,31.0,08.4,0000.0,0002.27,0010.63,0001.22
2021-11-08 07:02:00,,0826.0,5.00,0.00,29.3,28.4,00.0,38.3,31.0,08.1,0000.0,0002.33,0011.05,0001.23
2021-11-08 07:03:00,,0826.2,5.01,0.00,29.3,28.4,00.0,38.3,31.0,08.1,0000.0,0002.31,0011.12,0001.24
2021-11-08 07:04:00,,0826.2,5.00,0.00,29.3,28.4,00.0,38.3,30.9,08.3,0000.0,0002.25,0011.66,0001.23
2021-11-08 07:05:00,,0826.2,5.01,0.00,29.3,28.4,00.0,38.3,30.9,08.5,0000.0,0002.18,0010.74,0001.24
2021-11-08 07:06:00,,0826.2,5.00,0.00,29.2,28.3,00.0,38.3,30.9,08.6,0000.0,0002.18,0010.22,0001.25
2021-11-08 07:07:00,,0826.2,5.00,0.00,29.2,28.3,00.0,38.3,30.8,08.7,0000.0,0002.15,0009.93,0001.25
2021-11-08 07:08:00,,0826.2,4.98,0.00,29.2,28.3,00.0,38.3,30.8,08.8,0000.0,0002.10,0010.06,0001.25
2021-11-08 07:09:00,,0826.2,5.00,0.00,29.2,28.3,00.0,38.3,30.8,08.9,0000.0,0002.06,0010.42,0001.24
2021-11-08 07:10:00,,0826.2,5.01,0.00,29.1,28.2,00.0,38.3,30.9,08.9,0000.0,0001.96,0010.16,0001.23
2021-11-08 07:11:00,,0826.2,5.00,0.00,29.1,28.3,00.0,38.3,30.9,08.8,0000.0,0001.97,0010.16,0001.23
2021-11-08 07:12:00,,0826.2,4.99,0.00,29.2,28.3,00.0,38.3,30.9,08.8,0000.0,0001.94,0009.33,0001.24
2021-11-08 07:13:00,,0826.2,4.99,0.00,29.2,28.3,00.0,38.2,30.9,08.8,0000.0,0001.90,0008.68,0001.24
2021-11-08 07:14:00,,0826.2,5.00,0.00,29.2,28.3,00.0,38.2,30.9,08.7,0000.0,0001.85,0008.53,0001.22
2021-11-08 07:15:00,,0826.2,5.00,0.00,29.2,28.3,00.0,38.2,30.9,08.7,0000.0,0001.85,0007.34,0001.22
2021-11-08 07:16:00,,0826.2,5.00,0.00,29.2,28.3,00.0,38.2,30.9,08.7,0000.0,0001.85,0007.31,0001.22
2021-11-08 07:17:00,,0826.1,5.00,0.00,29.2,28.3,00.0,38.2,30.9,08.7,0000.0,0001.83,0007.68,0001.22
2021-11-08 07:18:00,,0826.1,5.00,0.00,29.2,28.3,00.0,38.2,30.9,08.7,0000.0,0001.83,0007.50,0001.23
2021-11-08 07:19:00,,0826.2,5.00,0.00,29.2,28.3,00.0,38.2,30.9,08.7,0000.0,0001.82,0006.52,0001.23
2021-11-08 07:20:00,,0826.2,5.00,0.00,29.2,28.3,00.0,38.2,30.9,08.8,0000.0,0001.81,0006.12,0001.24
2021-11-08 07:21:00,,0826.2,5.00,0.00,29.2,28.3,00.0,38.2,30.9,08.8,0000.0,0001.81,0005.84,0001.24
2021-11-08 07:22:00,,0826.2,4.99,0.00,29.2,28.3,00.0,38.2,30.9,09.0,0000.0,0001.81,0006.23,0001.23
2021-11-08 07:23:00,,0826.2,5.00,0.00,29.2,28.3,00.0,38.2,30.9,09.1,0000.0,0001.80,0006.00,0001.23
2021-11-08 07:24:00,,0826.2,5.00,0.00,29.2,28.3,00.0,38.2,30.9,09.1,0000.0,0001.79,0006.02,0001.23
2021-11-08 07:25:00,,0826.2,4.99,0.00,29.2,28.3,00.0,38.2,30.9,09.3,0000.0,0001.82,0006.41,0001.23
2021-11-08 07:26:00,,0826.3,5.01,0.00,29.2,28.3,00.0,38.2,30.9,09.4,0000.0,0001.87,0007.11,0001.23
2021-11-08 07:27:00,,0826.3,5.01,0.00,29.2,28.3,00.0,38.2,30.9,09.8,0000.0,0001.89,0007.47,0001.24
2021-11-08 07:28:00,,0826.3,5.00,0.00,29.2,28.3,00.0,38.2,30.9,09.9,0000.0,0001.93,0007.26,0001.25
2021-11-08 07:29:00,,0826.4,4.99,0.00,29.2,28.3,00.0,38.2,30.9,10.1,0000.0,0001.96,0007.75,0001.26
2021-11-08 07:30:00,,0826.4,4.99,0.00,29.2,28.2,00.0,38.2,30.9,10.3,0000.0,0002.01,0007.95,0001.28
2021-11-08 07:31:00,,0826.5,5.01,0.00,29.1,28.2,00.0,38.2,30.9,10.4,0000.0,0002.05,0007.86,0001.30
2021-11-08 07:32:00,,0826.5,5.00,0.00,29.1,28.2,00.0,38.2,30.8,10.5,0000.0,0002.10,0008.06,0001.33
2021-11-08 07:33:00,,0826.5,4.99,0.00,29.1,28.2,00.0,38.2,30.8,10.6,0000.0,0002.12,0007.86,0001.35
2021-11-08 07:34:00,,0826.5,5.00,0.00,29.1,28.2,00.0,38.2,30.8,10.6,0000.0,0002.23,0008.41,0001.37
2021-11-08 07:35:00,,0826.5,5.02,0.00,29.1,28.2,00.0,38.2,30.8,10.6,0000.0,0002.32,0008.44,0001.41
2021-11-08 07:36:00,,0826.5,5.00,0.00,29.1,28.2,00.0,38.2,30.8,10.6,0000.0,0002.41,0008.27,0001.44
2021-11-08 07:37:00,,0826.5,4.99,0.00,29.1,28.2,00.0,38.2,30.8,10.7,0000.0,0002.42,0007.99,0001.46
2021-11-08 07:38:00,,0826.5,5.00,0.00,29.1,28.2,00.0,38.2,30.8,10.8,0000.0,0002.44,0008.42,0001.47
2021-11-08 07:39:00,,0826.5,5.00,0.00,29.1,28.2,00.0,38.2,30.8,10.9,0000.0,0002.48,0008.44,0001.48
2021-11-08 07:40:00,,0826.5,5.01,0.00,29.1,28.2,00.0,38.1,30.8,10.9,0000.0,0002.51,0008.27,0001.49
2021-11-08 07:41:00,,0826.5,5.00,0.00,29.1,28.2,00.0,38.1,30.8,10.9,0000.0,0002.51,0008.56,0001.50
2021-11-08 07:42:00,,0826.6,5.02,0.00,29.1,28.2,00.0,38.1,30.8,11.0,0000.0,0002.46,0008.65,0001.51
2021-11-08 07:43:00,,0826.5,5.00,0.00,29.1,28.2,00.0,38.1,30.8,11.1,0000.0,0002.47,0008.24,0001.51
2021-11-08 07:44:00,,0826.5,5.00,0.00,29.1,28.2,00.0,38.1,30.8,11.2,0000.0,0002.46,0008.24,0001.51
2021-11-08 07:45:00,,0826.5,4.98,0.00,29.1,28.1,00.0,38.1,30.8,11.3,0000.0,0002.44,0007.91,0001.53
2021-11-08 07:46:00,,0826.5,5.00,0.00,29.1,28.1,00.0,38.1,30.8,11.4,0000.0,0002.40,0008.18,0001.52
2021-11-08 07:47:00,,0826.5,5.01,0.00,29.0,28.2,00.0,38.1,30.8,11.4,0000.0,0002.35,0008.39,0001.53
2021-11-08 07:48:00,,0826.5,5.00,0.00,29.1,28.1,00.0,38.1,30.7,11.5,0000.0,0002.38,0008.37,0001.55
2021-11-08 07:49:00,,0826.5,5.00,0.00,29.0,28.1,00.0,38.1,30.8,11.5,0000.0,0002.47,0008.39,0001.58
2021-11-08 07:50:00,,0826.5,4.99,0.00,29.0,28.2,00.0,38.1,30.8,11.6,0000.0,0002.52,0008.40,0001.60
2021-11-08 07:51:00,,0826.5,5.00,0.00,29.0,28.2,00.0,38.1,30.8,11.7,0000.0,0002.49,0008.77,0001.61
2021-11-08 07:52:00,,0826.5,5.01,0.00,29.0,28.2,00.0,38.1,30.8,11.7,0000.0,0002.53,0008.99,0001.62
2021-11-08 07:53:00,,0826.5,5.00,0.00,29.0,28.1,00.0,38.1,30.8,11.8,0000.0,0002.59,0008.86,0001.63
2021-11-08 07:54:00,,0826.7,5.01,0.00,29.0,28.1,00.0,38.1,30.7,11.9,0000.0,0002.63,0009.13,0001.65
2021-11-08 07:55:00,,0826.7,4.99,0.00,29.0,28.1,00.0,38.1,30.7,11.9,0000.0,0002.68,0009.54,0001.66
2021-11-08 07:56:00,,0826.7,5.00,0.00,29.0,28.1,00.0,38.1,30.7,11.9,0000.0,0002.69,0009.57,0001.66
2021-11-08 07:57:00,,0826.8,5.00,0.00,29.0,28.1,00.0,38.1,30.7,11.9,0000.0,0002.79,0009.45,0001.67
2021-11-08 07:58:00,,0826.8,5.00,0.00,29.0,28.1,00.0,38.1,30.7,12.0,0000.0,0002.88,0009.43,0001.69
2021-11-08 07:59:00,,0826.8,5.00,0.00,29.0,28.1,00.0,38.1,30.7,12.1,0000.0,0002.91,0010.38,0001.69
